Weather in Tangi-Chu

Russia / Chechen Republic     43°04′18″N   45°30′51″E
temp.,
°C
wind,
m/s
gust,
m/s
humid.,
%
clouds,
%
prec.,
mm/h
press.,
hPa
HPBL,
m
19 january, wed
wed1900:00−4sw327036 0.0 101419
03:00−6ssw2276100 0.0 101721
06:00−5ssw2276100 0.0 101730
09:00−3wnw0179100 0.0 1018153
12:00−2n2384100 0.5 1018605
15:00−3n2392100 1.9 1018459
18:00−4n2398100 1.8 1020291
21:00−5n1297100 3.2 1021247
20 january, thu
thu2000:00−6n1197100 1.0 1021132
03:00−6nne1197100 1.9 1021132
06:00−7nne1198100 0.6 102287
09:00−6ne1191100 0.9 1022270
12:00−5nne2289100 0.6 1021504
15:00−5nne2292100 1.3 1021418
18:00−7wsw0098100 0.5 102325
21:00−9ssw228993 0.6 102419
21 january, fri
fri2100:00−10ssw328265 0.0 102627
03:00−10ssw327958 0.1 102638
06:00−8ssw3270100 0.0 102433
09:00−2s2368100 0.0 1023111
12:00+3ne11533 0.0 1021525
15:00+1ne11691 0.0 1021222
18:00−5ssw32874 0.0 102319
21:00−5ssw327288 0.0 102228
22 january, sat
sat2200:00−5ssw32706 0.0 102028
03:00−4ssw32685 0.0 101832
06:00−4ssw32715 0.0 101827
09:000ssw226795 0.0 101550
12:00+4nnw116741 0.0 1013154
15:00+3nw1175100 0.0 1015119
18:00−1ssw2287100 0.0 101713
21:00−1ssw2280100 0.0 101716
23 january, sun
sun2300:00−3ssw2280100 0.0 101912
03:00−3ssw2281100 0.0 101912
06:00−3ssw2182100 0.0 101811
09:000e017482 0.0 101872
12:00+2nne21715 0.0 1017325
15:00+1nne117511 0.0 1017336
18:00−3sw22895 0.0 101814
21:00−3ssw22835 0.0 101713